DW0880 Weather Reports


Display with metric or nautical units.
time (UTC)temp
F
wind
direction
speed
MPH
gust
MPH
rain 1hr
in
rain 24hr
in
rain mn
in
humidity
%
barometer
mb
20260507224007 54 186 0.0 4.0 0.00 0.02 0.00 56 1012.1
20260507223503 55 349 0.0 4.0 0.00 0.02 0.00 57 1012.1
20260507223002 55 306 1.0 4.0 0.00 0.02 0.00 57 1012.1
20260507222501 55 144 0.0 4.0 0.00 0.02 0.00 58 1012.0
20260507222059 55 196 1.0 4.0 0.00 0.02 0.00 59 1011.9
20260507221559 55 178 0.0 3.0 0.00 0.02 0.00 59 1011.9
20260507221057 55 186 0.0 3.0 0.00 0.02 0.00 59 1011.8
20260507220558 56 320 1.0 3.0 0.00 0.02 0.00 60 1011.9
20260507215555 56 360 0.0 3.0 0.00 0.02 0.02 61 1011.9
20260507215055 56 67 0.0 3.0 0.00 0.02 0.02 62 1011.9
20260507214600 57 59 1.0 3.0 0.00 0.02 0.02 63 1012.0
20260507214055 57 200 0.0 2.0 0.00 0.02 0.02 63 1011.9
20260507213559 57 192 0.0 3.0 0.00 0.02 0.02 63 1011.9
20260507213055 58 15 0.0 3.0 0.00 0.02 0.02 63 1011.9
20260507212557 58 252 0.0 3.0 0.00 0.02 0.02 63 1012.0
20260507212054 58 275 0.0 3.0 0.00 0.02 0.02 63 1012.0
20260507211554 59 63 1.0 3.0 0.00 0.02 0.02 63 1012.0
20260507211054 59 209 0.0 8.0 0.00 0.02 0.02 63 1011.9
20260507210558 59 323 0.0 11.0 0.00 0.02 0.02 63 1012.0
20260507210055 59 108 5.0 11.0 0.00 0.02 0.02 63 1012.0
20260507205553 59 65 1.0 10.0 0.00 0.02 0.02 63 1012.0
20260507205053 59 60 1.0 6.0 0.00 0.02 0.02 63 1011.9
20260507204558 59 5 1.0 4.0 0.00 0.02 0.02 62 1011.9
20260507204054 60 10 2.0 4.0 0.00 0.02 0.02 63 1012.0
20260507203554 60 42 2.0 4.0 0.00 0.02 0.02 64 1012.1
20260507203052 60 26 1.0 4.0 0.00 0.02 0.02 65 1012.1
20260507202555 60 355 1.0 6.0 0.00 0.02 0.02 65 1012.1
20260507202051 60 360 2.0 6.0 0.00 0.02 0.02 65 1012.1
20260507201557 60 67 1.0 7.0 0.00 0.02 0.02 65 1012.1
20260507201051 61 72 3.0 9.0 0.00 0.02 0.02 65 1012.1
20260507200551 61 91 1.0 9.0 0.00 0.02 0.02 65 1012.1
20260507200054 61 94 2.0 9.0 0.00 0.04 0.02 65 1012.1
20260507195551 61 111 2.0 12.0 0.00 0.04 0.02 65 1012.0
20260507195051 61 96 5.0 12.0 0.00 0.04 0.02 65 1012.0
20260507194551 61 75 6.0 11.0 0.00 0.04 0.02 65 1012.0
20260507194051 62 70 2.0 9.0 0.00 0.04 0.02 65 1012.0
20260507193551 62 107 3.0 9.0 0.00 0.04 0.02 65 1011.9
20260507193053 62 113 4.0 12.0 0.00 0.04 0.02 65 1011.9
20260507192550 62 107 5.0 12.0 0.00 0.04 0.02 65 1011.9
20260507192052 62 115 6.0 11.0 0.00 0.04 0.02 65 1011.8
20260507191555 62 98 7.0 11.0 0.00 0.04 0.02 65 1011.9
20260507191049 62 104 4.0 11.0 0.00 0.04 0.02 65 1011.7
20260507190549 62 83 6.0 11.0 0.00 0.04 0.02 65 1011.7
20260507190053 63 107 6.0 11.0 0.00 0.04 0.02 65 1011.8
20260507185549 63 90 6.0 12.0 0.00 0.04 0.02 65 1011.9
20260507185048 63 113 6.0 12.0 0.00 0.04 0.02 64 1011.7
20260507184552 63 136 3.0 13.0 0.00 0.04 0.02 64 1011.7
20260507184049 64 69 4.0 13.0 0.00 0.04 0.02 65 1011.7
20260507183548 64 105 4.0 12.0 0.00 0.04 0.02 65 1011.8
20260507183048 64 107 4.0 12.0 0.00 0.04 0.02 65 1011.7
20260507182547 64 69 5.0 11.0 0.00 0.04 0.02 65 1011.7
20260507182048 65 60 5.0 11.0 0.00 0.04 0.02 65 1011.6
20260507181556 65 35 5.0 11.0 0.00 0.04 0.02 64 1011.7
20260507181047 66 69 3.0 12.0 0.00 0.04 0.02 64 1011.6
20260507180546 66 74 5.0 12.0 0.00 0.04 0.02 62 1011.6
20260507180047 66 59 5.0 12.0 0.00 0.04 0.02 59 1011.5
20260507175548 67 61 1.0 6.0 0.00 0.04 0.02 59 1011.4
20260507175046 67 60 1.0 4.0 0.00 0.04 0.02 58 1011.4
20260507174553 68 51 2.0 3.0 0.00 0.04 0.02 57 1011.2
20260507174046 68 42 1.0 3.0 0.00 0.04 0.02 55 1011.2
20260507173546 69 323 1.0 4.0 0.00 0.04 0.02 54 1011.2
20260507173047 69 360 1.0 4.0 0.00 0.04 0.02 53 1011.2
20260507172545 69 320 2.0 5.0 0.00 0.04 0.02 52 1011.1
20260507172044 70 321 2.0 5.0 0.00 0.04 0.02 52 1011.1
20260507171545 70 337 2.0 5.0 0.00 0.04 0.02 52 1011.0
20260507171045 70 281 2.0 5.0 0.00 0.04 0.02 52 1011.0
20260507170545 70 340 2.0 5.0 0.00 0.04 0.02 52 1010.9
20260507170050 70 331 2.0 5.0 0.00 0.04 0.02 52 1010.9
20260507165544 70 331 1.0 6.0 0.00 0.04 0.02 52 1011.0
20260507165044 70 5 3.0 6.0 0.00 0.04 0.02 52 1011.0
20260507164544 70 347 2.0 6.0 0.00 0.04 0.02 52 1010.9
20260507164049 70 340 3.0 6.0 0.00 0.04 0.02 53 1010.9
20260507163544 69 344 3.0 6.0 0.00 0.04 0.02 53 1010.9
20260507163044 69 334 2.0 6.0 0.00 0.04 0.02 55 1010.9
20260507162543 69 296 0.0 5.0 0.00 0.04 0.02 54 1011.0
20260507162044 69 282 1.0 4.0 0.00 0.04 0.02 56 1011.0
20260507161541 69 203 0.0 6.0 0.00 0.04 0.02 55 1011.1
20260507161041 69 329 1.0 6.0 0.00 0.04 0.02 56 1011.2
20260507160541 69 269 2.0 6.0 0.00 0.04 0.02 55 1011.3
20260507160041 69 350 2.0 5.0 0.00 0.04 0.02 55 1011.2
20260507155540 69 231 0.0 5.0 0.00 0.04 0.02 56 1011.2
20260507155040 69 196 0.0 7.0 0.00 0.04 0.02 57 1011.2
20260507154542 69 227 4.0 7.0 0.00 0.04 0.02 56 1011.2
20260507154040 69 266 1.0 5.0 0.00 0.04 0.02 57 1011.3
20260507153541 69 298 1.0 6.0 0.00 0.04 0.02 57 1011.3
20260507153048 70 228 2.0 6.0 0.00 0.04 0.02 57 1011.3
20260507152538 69 334 2.0 6.0 0.00 0.04 0.02 56 1011.3
20260507152038 69 109 1.0 4.0 0.00 0.04 0.02 56 1011.3
20260507151537 68 246 1.0 3.0 0.00 0.04 0.02 56 1011.4
20260507151037 68 346 1.0 3.0 0.00 0.04 0.02 58 1011.4
20260507150538 68 337 1.0 4.0 0.00 0.04 0.02 58 1011.5
20260507150040 70 263 1.0 4.0 0.00 0.04 0.02 57 1011.4
20260507145537 70 272 1.0 4.0 0.00 0.04 0.02 55 1011.5
20260507145036 70 317 1.0 5.0 0.00 0.04 0.02 55 1011.5
20260507144535 70 238 0.0 7.0 0.00 0.04 0.02 56 1011.5
20260507144037 69 202 2.0 8.0 0.00 0.04 0.02 58 1011.7
20260507143535 69 268 4.0 8.0 0.00 0.04 0.02 56 1011.8
20260507143036 69 5 4.0 8.0 0.00 0.04 0.02 55 1011.8
20260507142534 70 336 2.0 7.0 0.00 0.04 0.02 55 1011.7
20260507142033 70 287 1.0 13.0 0.00 0.04 0.02 58 1011.8
20260507141534 70 36 2.0 13.0 0.00 0.04 0.02 58 1011.8
20260507141034 70 341 0.0 7.0 0.00 0.04 0.02 54 1011.9
20260507140534 71 333 1.0 11.0 0.00 0.04 0.02 52 1012.0
20260507140033 71 213 3.0 11.0 0.00 0.04 0.02 56 1012.0
20260507135534 70 261 2.0 9.0 0.00 0.04 0.02 56 1012.0
20260507135031 70 271 2.0 7.0 0.00 0.04 0.02 56 1012.0
20260507134534 69 177 1.0 7.0 0.00 0.04 0.02 58 1012.0
20260507134030 68 234 0.0 5.0 0.00 0.04 0.02 56 1012.2
20260507133531 68 227 2.0 6.0 0.00 0.04 0.02 56 1012.2
20260507133031 68 76 3.0 6.0 0.00 0.04 0.02 57 1012.2
20260507132530 68 316 1.0 6.0 0.00 0.04 0.02 57 1012.2
20260507132029 69 269 3.0 6.0 0.00 0.04 0.02 56 1012.3
20260507131536 69 276 1.0 8.0 0.00 0.04 0.02 57 1012.3
20260507131030 69 249 1.0 9.0 0.00 0.04 0.02 54 1012.4
20260507130529 69 210 3.0 9.0 0.00 0.04 0.02 56 1012.5
20260507130029 69 231 4.0 10.0 0.00 0.04 0.02 55 1012.4
20260507125529 69 252 2.0 6.0 0.00 0.04 0.02 56 1012.4
20260507125028 69 179 2.0 8.0 0.00 0.04 0.02 56 1012.4
20260507124528 69 207 4.0 9.0 0.00 0.04 0.02 56 1012.4
20260507124028 70 207 4.0 9.0 0.00 0.04 0.02 55 1012.4
20260507123529 70 266 3.0 8.0 0.00 0.04 0.02 55 1012.3
20260507123028 70 263 0.0 10.0 0.00 0.04 0.02 53 1012.4
20260507122529 70 194 4.0 10.0 0.00 0.04 0.02 55 1012.4
20260507122026 70 192 2.0 10.0 0.00 0.04 0.02 55 1012.4
20260507121526 70 194 1.0 11.0 0.00 0.04 0.02 54 1012.4
20260507121025 70 228 4.0 11.0 0.00 0.04 0.02 56 1012.4
20260507120524 69 202 3.0 10.0 0.00 0.04 0.02 59 1012.5
20260507120037 69 221 4.0 10.0 0.00 0.04 0.02 58 1012.5
20260507115524 69 213 3.0 10.0 0.00 0.04 0.02 58 1012.5
20260507115024 69 225 4.0 10.0 0.00 0.04 0.02 59 1012.5
20260507114525 69 148 2.0 6.0 0.00 0.04 0.02 61 1012.5
20260507114024 68 203 3.0 8.0 0.00 0.04 0.02 64 1012.7
20260507113524 67 229 2.0 11.0 0.00 0.04 0.02 61 1012.7
20260507113024 67 244 4.0 11.0 0.00 0.04 0.02 62 1012.6
20260507112523 67 330 0.0 12.0 0.00 0.04 0.02 60 1012.7
20260507112023 68 130 4.0 12.0 0.00 0.04 0.02 61 1012.7
20260507111524 68 193 2.0 9.0 0.00 0.04 0.02 61 1012.8
20260507111022 69 253 3.0 8.0 0.00 0.04 0.02 59 1012.7
20260507110521 69 213 3.0 10.0 0.00 0.04 0.02 61 1012.7
20260507110021 68 202 5.0 10.0 0.00 0.04 0.02 60 1012.9
20260507105520 69 180 2.0 11.0 0.00 0.04 0.02 62 1012.8
20260507105020 69 106 1.0 11.0 0.00 0.04 0.02 62 1012.9
20260507104521 69 246 5.0 11.0 0.00 0.04 0.02 63 1013.0
20260507104019 69 186 2.0 9.0 0.00 0.04 0.02 64 1013.0
20260507103519 68 184 3.0 9.0 0.00 0.04 0.02 65 1013.1
20260507103017 67 185 2.0 8.0 0.00 0.04 0.02 64 1013.0
20260507102519 67 215 3.0 7.0 0.00 0.04 0.02 64 1013.0
20260507102016 67 203 2.0 7.0 0.00 0.04 0.02 65 1013.0
20260507101516 66 187 3.0 9.0 0.00 0.04 0.02 65 1013.2
20260507101015 66 215 2.0 9.0 0.00 0.04 0.02 64 1013.1
20260507100515 66 207 3.0 9.0 0.00 0.04 0.02 65 1013.1
20260507100014 66 223 3.0 9.0 0.00 0.04 0.02 65 1013.1
20260507095517 66 192 4.0 8.0 0.00 0.04 0.02 65 1013.2
20260507095015 65 209 3.0 6.0 0.00 0.04 0.02 65 1013.2
20260507094614 64 234 3.0 11.0 0.00 0.04 0.02 65 1013.3
20260507094014 65 254 3.0 11.0 0.00 0.04 0.02 65 1013.3
20260507093514 65 195 2.0 7.0 0.00 0.04 0.02 65 1013.2
20260507093014 66 232 2.0 7.0 0.00 0.04 0.02 65 1013.3
20260507092512 66 215 2.0 10.0 0.00 0.04 0.02 64 1013.4
20260507092011 66 255 5.0 12.0 0.00 0.04 0.02 65 1013.4
20260507091514 65 236 2.0 12.0 0.00 0.04 0.02 64 1013.4
20260507091011 65 231 4.0 9.0 0.00 0.04 0.02 64 1013.4
20260507090508 64 245 4.0 10.0 0.00 0.04 0.02 60 1013.4
20260507090009 62 219 4.0 10.0 0.00 0.04 0.02 59 1013.3
20260507085506 61 238 4.0 10.0 0.00 0.04 0.02 62 1013.4
20260507085006 61 267 3.0 10.0 0.00 0.04 0.02 63 1013.3
20260507084511 61 245 2.0 8.0 0.00 0.04 0.02 63 1013.3
20260507084005 62 234 2.0 10.0 0.00 0.04 0.02 63 1013.5
20260507083505 62 217 1.0 10.0 0.00 0.04 0.02 61 1013.5
20260507083004 62 261 2.0 6.0 0.00 0.04 0.02 58 1013.6
20260507082502 61 205 1.0 8.0 0.00 0.04 0.02 54 1013.4
20260507082103 60 207 4.0 8.0 0.00 0.04 0.02 53 1013.5
20260507081604 60 231 3.0 7.0 0.00 0.04 0.02 53 1013.4
20260507081100 60 241 3.0 7.0 0.00 0.04 0.02 51 1013.4
20260507080556 60 245 2.0 6.0 0.00 0.04 0.02 52 1013.4
20260507080100 59 262 1.0 5.0 0.00 0.04 0.02 51 1013.2
20260507075555 59 237 1.0 5.0 0.00 0.04 0.02 51 1013.3
20260507075054 59 194 1.0 5.0 0.00 0.04 0.02 51 1013.3
20260507074607 59 248 1.0 4.0 0.00 0.04 0.02 52 1013.3
20260507074054 59 258 1.0 4.0 0.00 0.04 0.02 53 1013.3
20260507073554 59 241 1.0 8.0 0.00 0.04 0.02 52 1013.2
20260507073053 59 253 2.0 8.0 0.00 0.04 0.02 52 1013.3
20260507072553 59 263 3.0 9.0 0.00 0.04 0.02 51 1013.3
20260507072052 59 236 3.0 9.0 0.00 0.04 0.02 50 1013.2
20260507071552 59 232 2.0 5.0 0.00 0.04 0.02 49 1013.2
20260507071051 59 284 2.0 5.0 0.00 0.04 0.02 49 1013.2
20260507070550 59 263 2.0 5.0 0.00 0.04 0.02 48 1013.2
20260507070049 59 261 1.0 7.0 0.00 0.04 0.02 47 1013.0
20260507065549 59 241 0.0 7.0 0.00 0.04 0.02 46 1013.0
20260507065047 59 238 3.0 7.0 0.00 0.04 0.02 44 1012.9
20260507064547 58 256 1.0 5.0 0.00 0.04 0.02 43 1012.9
20260507064047 58 259 2.0 7.0 0.00 0.04 0.02 42 1012.9
20260507063545 58 225 3.0 7.0 0.00 0.04 0.02 42 1013.0
20260507063045 58 236 1.0 5.0 0.00 0.04 0.02 41 1013.0
20260507062544 57 198 1.0 5.0 0.00 0.04 0.02 40 1012.9
20260507062046 57 132 1.0 7.0 0.00 0.04 0.02 40 1013.0
20260507061543 57 210 2.0 7.0 0.00 0.04 0.02 39 1013.0
20260507061044 57 212 3.0 9.0 0.00 0.04 0.02 40 1013.0
20260507060542 57 173 3.0 9.0 0.00 0.04 0.02 36 1013.0
20260507060047 57 211 5.0 9.0 0.00 0.04 0.02 32 1012.9
20260507055641 57 206 4.0 8.0 0.00 0.04 0.02 30 1012.9
20260507055042 56 177 3.0 7.0 0.00 0.04 0.02 29 1012.8
20260507054552 55 194 3.0 7.0 0.00 0.04 0.02 29 1012.7
20260507054039 55 204 3.0 6.0 0.00 0.04 0.02 31 1012.7
20260507053537 54 159 3.0 6.0 0.00 0.04 0.02 31 1012.7
20260507053036 54 169 3.0 6.0 0.00 0.04 0.02 31 1012.8
20260507052536 54 183 2.0 6.0 0.00 0.04 0.02 31 1012.8
20260507052035 54 181 3.0 6.0 0.00 0.04 0.02 31 1012.8
20260507051535 54 196 1.0 4.0 0.00 0.04 0.02 31 1012.8
20260507051034 54 194 1.0 4.0 0.00 0.04 0.02 32 1012.8
20260507050532 54 188 1.0 5.0 0.00 0.04 0.02 32 1012.8
20260507050131 54 211 2.0 5.0 0.00 0.04 0.02 32 1012.7
20260507045531 54 203 3.0 5.0 0.00 0.04 0.02 33 1012.7
20260507045029 54 190 2.0 4.0 0.00 0.04 0.02 33 1012.8
20260507044527 54 217 1.0 6.0 0.00 0.04 0.02 33 1012.7
20260507044026 54 186 1.0 6.0 0.00 0.04 0.02 33 1012.6
20260507043526 54 209 1.0 3.0 0.00 0.04 0.02 33 1012.6
20260507043025 54 159 1.0 3.0 0.00 0.04 0.02 33 1012.6
20260507042525 54 175 0.0 4.0 0.00 0.04 0.02 33 1012.4
20260507042024 54 153 1.0 7.0 0.00 0.04 0.02 33 1012.4
20260507041523 54 219 2.0 7.0 0.00 0.04 0.02 33 1012.3
20260507041022 54 180 2.0 7.0 0.00 0.04 0.02 33 1012.3
20260507040523 54 173 0.0 4.0 0.00 0.04 0.02 33 1012.2
20260507040022 54 178 0.0 5.0 0.00 0.04 0.02 33 1012.2
20260507035521 54 188 2.0 5.0 0.00 0.04 0.02 33 1012.2
20260507035022 54 189 1.0 4.0 0.00 0.04 0.02 34 1012.2
20260507034521 54 201 2.0 5.0 0.00 0.04 0.02 34 1012.1
20260507034021 54 190 1.0 5.0 0.00 0.04 0.02 34 1012.1
20260507033521 54 192 2.0 5.0 0.00 0.04 0.02 34 1012.0
20260507033023 54 170 0.0 3.0 0.00 0.04 0.02 34 1012.0
20260507032520 54 181 0.0 3.0 0.00 0.04 0.02 34 1012.0
20260507032023 54 163 0.0 2.0 0.00 0.04 0.02 34 1012.0
20260507031519 54 128 0.0 2.0 0.00 0.04 0.02 34 1012.0
20260507031022 54 171 0.0 2.0 0.00 0.04 0.02 35 1011.9
20260507030520 54 150 0.0 3.0 0.00 0.04 0.02 35 1012.0
20260507030019 54 173 0.0 3.0 0.00 0.04 0.02 35 1012.0
20260507025518 54 137 1.0 3.0 0.00 0.04 0.02 35 1012.0
20260507025018 54 172 0.0 3.0 0.00 0.04 0.02 35 1012.0
20260507024521 54 130 0.0 3.0 0.01 0.04 0.02 35 1012.0
20260507024025 54 142 0.0 5.0 0.02 0.04 0.02 35 1012.0
20260507023517 55 135 1.0 5.0 0.02 0.04 0.02 35 1012.0
20260507023017 55 132 2.0 4.0 0.02 0.04 0.02 36 1011.9
20260507022516 55 183 0.0 4.0 0.02 0.04 0.02 36 1012.0
20260507022018 55 238 1.0 4.0 0.02 0.04 0.02 36 1012.0
20260507021515 55 242 0.0 3.0 0.02 0.04 0.02 36 1011.9
20260507021015 55 205 0.0 3.0 0.02 0.04 0.02 36 1011.9
20260507020517 55 237 1.0 3.0 0.02 0.04 0.02 37 1011.9
20260507020015 55 222 0.0 2.0 0.02 0.04 0.02 37 1011.9
20260507015515 55 215 0.0 3.0 0.02 0.04 0.02 37 1011.9
20260507015014 55 208 0.0 3.0 0.01 0.03 0.02 37 1011.9
20260507014518 55 213 0.0 3.0 0.01 0.03 0.02 37 1011.9
20260507014014 55 171 0.0 3.0 0.00 0.02 0.01 37 1011.8
20260507013513 55 175 0.0 3.0 0.00 0.02 0.01 37 1011.8
20260507013013 55 216 1.0 3.0 0.00 0.02 0.01 37 1011.8